Content
SEND FEEDBACK

Daily
Averages
Monthly
Summary
Mexico

LEONA VICARIO, QUINTANA ROO


Home > North America > Mexico > Quintana Roo
Elevation: 26 feet     Latitude: 20 59N     Longitude: 087 12W

WEATHER
 
SELECT A DAY
Number of Records: 166,401;   Date Range: 1/1/95 - 10/22/14
 
SHARE

PRINT THIS DATA

[ ← Previous Day ]
WEATHER ALMANAC - MAY 4, 2014
[ Next Day → ]
[ °C ]   °F
Weather ElementAverageHighLow
Temperature75.9 °F82.4 °F (12:44 pm)71.6 °F (3:42 am)
Dewpoint72.7 °F75.2 °F (7:48 am)71.6 °F (1:44 am)
Humidity89.9 %100 % (3:42 am)74 % (12:44 pm)
Barometer30.03 in30.08 in (10:17 am)29.97 in (3:42 am)
Wind Speed5.6 mph10.4 mph (12:44 pm)
Weather ElementAverage
Visibility5.4 mi
Wind DirectionESE (121.7 °)

Weather ElementTotal
Precipitation---
Cooling Degree Days12 (Base 65)
Growing Degree Days27 (Base 50)
Averaged from 29 records on May 4, 2014
WEATHER CONDITIONS BREAKOUT
WIND DIRECTION BREAKOUT
WEATHER BY HOUR - MAY 4, 2014
[ °C ]   °F
Local TimeTemperatureDewpointHumidityBarometerVisibilityWind DirectionWind SpeedGust SpeedPrecipitationEventsConditions
1:44 AM73.4 °F71.6 °F94 %30.02 in6.0 miNW (310°)2.3 mphMostly Cloudy
2:46 AM73.4 °F71.6 °F94 %30.01 in6.0 miNW (310°)2.3 mphScattered Clouds
3:42 AM71.6 °F71.6 °F100 %29.97 in6.0 miWNW (300°)2.3 mphScattered Clouds
4:47 AM73.4 °F71.6 °F94 %30.00 in6.0 miNNW (340°)4.6 mphScattered Clouds
5:48 AM73.4 °F71.6 °F94 %30.02 in6.0 miNNW (330°)2.3 mphScattered Clouds
6:40 AM73.4 °F71.6 °F94 %29.99 in6.0 miCalmScattered Clouds
7:48 AM75.2 °F75.2 °F100 %30.06 in6.0 miNorth (350°)2.3 mphMostly Cloudy
8:41 AM77.0 °F73.4 °F89 %30.06 in7.0 miNNE (20°)5.8 mphMostly Cloudy
9:05 AM75.2 °F75.2 °F100 %30.07 in5.0 miNE (40°)6.9 mphRainRain
9:24 AM77.0 °F73.4 °F89 %30.07 in6.0 miNE (40°)4.6 mphMostly Cloudy
9:42 AM77.0 °F73.4 °F89 %30.06 in6.0 miNE (50°)5.8 mphMostly Cloudy
10:17 AM75.2 °F73.4 °F94 %30.08 in4.0 miNE (50°)5.8 mphRainRain
10:42 AM75.2 °F73.4 °F94 %30.07 in3.0 miNNE (20°)4.6 mphRainRain
10:58 AM75.2 °F75.2 °F100 %30.07 in6.0 miNorth (360°)3.5 mphRainLight Rain
11:18 AM77.0 °F75.2 °F94 %6.0 miNNE (30°)6.9 mphOvercast
11:46 AM78.8 °F73.4 °F83 %30.06 in6.0 miNE (40°)8.1 mphOvercast
12:44 PM82.4 °F73.4 °F74 %30.03 in6.0 miENE (60°)10.4 mphMostly Cloudy
1:21 PM77.0 °F73.4 °F89 %30.04 in5.0 miNE (40°)8.1 mphRainRain
1:44 PM77.0 °F73.4 °F89 %30.04 in6.0 miENE (60°)6.9 mphRainLight Rain
2:49 PM75.2 °F73.4 °F94 %30.01 in2.5 miNorth (10°)5.8 mphRainLight Rain
3:45 PM75.2 °F71.6 °F89 %29.99 in3.0 miNNE (30°)10.4 mphRainLight Rain
4:46 PM75.2 °F71.6 °F89 %30.01 in3.0 miNorth (360°)5.8 mphRainLight Rain
5:41 PM77.0 °F71.6 °F83 %30.01 in5.0 miNE (40°)8.1 mphRainLight Rain
6:45 PM77.0 °F71.6 °F83 %30.00 in6.0 miEast (80°)8.1 mphMostly Cloudy
7:42 PM77.0 °F71.6 °F83 %30.02 in6.0 miENE (60°)8.1 mphMostly Cloudy
8:40 PM77.0 °F71.6 °F83 %30.04 in6.0 miNE (50°)4.6 mphMostly Cloudy
9:48 PM77.0 °F71.6 °F83 %30.03 in6.0 miNNE (20°)5.8 mphMostly Cloudy
10:47 PM77.0 °F71.6 °F83 %30.06 in6.0 miEast (80°)5.8 mphMostly Cloudy
11:46 PM77.0 °F71.6 °F83 %30.06 in6.0 miNE (50°)5.8 mphMostly Cloudy
Hourly data recorded from MMUN, located miles away from Leona Vicario, Quintana Roo







STORIES FROM OUR PARTNERS